Flag for Germany Weather past 2 weeks in Bad Homburg, Hesse, Germany

Now
67 °F

Scattered clouds.


Feels Like: 67 °F
Forecast: 56 / 78 °F
Wind: 5 mph from North

Location: Frankfurt / M-Flughafen

Current Time: Jul 31, 2015 at 1:30:14 PM

Latest Report: Jul 31, 2015 at 1:00 PM


Visibility: 28 mi

Pressure: 30.10 "Hg

Humidity: 40%

Dew point: 42 °F

Location of Bad HomburgLocation

Historic Weather in Bad Homburg — Graph

°F

Bad Homburg temperature yesterday

Maximum temperature yesterday: 71 °F (at 3:00 PM)
Minimum temperature yesterday: 47 °F (at 4:00 AM)
Average temperature yesterday: 60 °F

Past Weeks' High & Low Weather Summary

 TemperatureHumidityPressure
High95 °F (Jul 17, 6:00 PM)98% (Jul 18, 4:00 AM)30.14 "Hg (Jul 18, 4:00 AM)
Low47 °F (Jul 30, 4:00 AM)23% (Jul 17, 4:00 PM)29.63 "Hg (Jul 27, 8:00 AM)
Average71 °F59%29.89 "Hg
* Reported Jul 16 12:00 Noon — Jul 31 12:00 Noon, Bad Homburg, Weather by CustomWeather, © 2015

Note: Actual official high and low records may vary slightly from our data, if they occured in-between our weather recording intervals... More about our weather records

Advertising

Bad Homburg weather history for previous 24 hours

 ConditionsComfort  
Time TempWeatherWind HumidityBarometerVisibility
12:00 PM
Fri, Jul 31
66 °FScattered clouds.3 mph46%30.12 "Hg28 mi
11:00 AM63 °FPassing clouds.5 mph51%30.12 "Hg25 mi
10:00 AM61 °FPassing clouds.3 mph57%30.13 "Hg22 mi
9:00 AM58 °FPassing clouds.5 mph70%30.14 "Hg16 mi
8:00 AM55 °FPassing clouds.2 mph82%30.14 "Hg14 mi
7:00 AM48 °FPassing clouds.1 mph97%30.13 "Hg16 mi
4:00 AM49 °FPassing clouds.1 mph96%30.11 "Hg19 mi
3:00 AM51 °FPassing clouds.2 mph92%30.11 "Hg25 mi
2:00 AM54 °FPassing clouds.1 mph81%30.10 "Hg34 mi
1:00 AM55 °FPassing clouds.3 mph79%30.10 "Hg43 mi
10:00 PM
Thu, Jul 30
61 °FSprinkles. Overcast.2 mph58%30.06 "Hg43 mi
9:00 PM62 °FOvercast.3 mph52%30.03 "Hg40 mi
8:00 PM64 °FOvercast.6 mph50%30.02 "Hg37 mi
7:00 PM65 °FPartly sunny.7 mph50%30.00 "Hg37 mi
6:00 PM67 °FPartly sunny.8 mph43%29.98 "Hg34 mi
4:00 PM70 °FPartly sunny.5 mph32%29.96 "Hg37 mi
3:00 PM71 °FPartly sunny.5 mph28%29.96 "Hg37 mi
2:00 PM69 °FPartly sunny.5 mph32%29.97 "Hg37 mi
1:00 PM68 °FScattered clouds.6 mph35%29.98 "Hg37 mi
Weather by CustomWeather, © 2015

See weather overviewHow to use our weather pages